logo
App data

Bell Ringer

Bell Ringer is a fast paced arena PvP brawler with local and online multiplayer. Gather your friends and brace yourselves for some intense brawling! Choose between five unique characters with different weapons, special moves and styles.
Store | Hub | SteamDB | Site
Developer: Night Node Software Publisher: Night Node Software
Genre: Action, Indie
Languages: English
Tags: Indie (28), Action (27), Platformer (5), Multiplayer (5), Fighting (5)
Category: Single-player, Multi-player, Co-op, Shared/Split Screen, Steam Achievements, Full controller support, Steam Trading Cards, Remote Play Together
Release date: Mar 18, 2016 (previously in Early Access)
Price: $6.99
Old userscore: 24% Owners: 200,000 .. 500,000
Followers: 297
Peak concurrent players yesterday: 1
YouTube stats: 4 views and 0 comments for top 50 videos uploaded last week, 0 new videos uploaded yesterday.
Playtime total: 03:30 (average) 04:15 (median)

Steam Spy is still in beta, so expect major bugs.

Owners data:

Access restricted.

This feature is only available to users with special access rights. Sorry.

If you want to proceed, you need to register or log in first and then back Steam Spy on Patreon. Look for Indie or Pro pledge.

Don't forget to use the same email as on Steam Spy!

Audience in 2 weeks:

Access restricted.

This feature is only available to users with special access rights. Sorry.

If you want to proceed, you need to register or log in first and then back Steam Spy on Patreon. Look for Indie or Pro pledge.

Don't forget to use the same email as on Steam Spy!

Peak daily concurrent players:

CCU data courtesy of SteamDB. Used with permission.

Hourly concurrent players:

Daily Twitch stats:

Hourly Twitch stats:

Followers over time

Access restricted.

This feature is only available to users with special access rights. Sorry.

If you want to proceed, you need to register or log in first and then back Steam Spy on Patreon. Look for Indie or Pro pledge.

Don't forget to use the same email as on Steam Spy!

Views for top 50 videos on YouTube for this game:

YouTube's Terms of Service

The views data is based on top 50 videos uploaded last week. Actual number of views might be more than the number shown.

If the game has commonly used word as its name (like "FEAR" or "Volume") its number of Youtube views might be wrong.

Games similar to this one:

# Game Release date
Price
Score rank
(Userscore / Metascore)
Owners
Players
Playtime (Median)
1 iO Dec 5, 2014 $4.99N/A (N/A)50,000 .. 100,0000%00:00 (00:00)
2 Back to Bed Aug 6, 2014 $5.99N/A (N/A)1,000,000 .. 2,000,0001.37%00:06 (00:02)
3 Horizon Shift May 29, 2015 $4.99N/A (N/A)200,000 .. 500,0000%00:00 (00:00)
4 OTTTD Aug 6, 2014 $7.99N/A (N/A)50,000 .. 100,0000%00:00 (00:00)
5 Super Life of Pixel Oct 22, 2014 $9.99N/A (N/A)20,000 .. 50,0000%00:00 (00:00)
6 A City Sleeps Oct 16, 2014 $9.99N/A (N/A)20,000 .. 50,0000%00:00 (00:00)
7 The Deer God Feb 27, 2015 $14.99N/A (N/A/59%)20,000 .. 50,0000%00:00 (00:00)
8 Velocibox Sep 8, 2014 $4.99N/A (N/A)50,000 .. 100,0000%00:00 (00:00)
9 Frederic: Evil Strikes Back May 23, 2014 $7.99N/A (N/A)100,000 .. 200,0000%00:00 (00:00)
10 Squishy the Suicidal Pig Oct 23, 2014 $5.99N/A (N/A)200,000 .. 500,0000%00:00 (00:00)
11 Rhythm Destruction Jun 16, 2014 $4.99N/A (N/A)50,000 .. 100,0000%00:00 (00:00)
12 Great Permutator Sep 15, 2014 $6.99N/A (N/A)20,000 .. 50,0000%00:00 (00:00)
13 Ballad of Solar May 22, 2014 $6.99N/A (N/A)0 .. 20,0000%00:00 (00:00)
14 Chariot Nov 12, 2014 $3.74N/A (N/A/76%)50,000 .. 100,0000%00:00 (00:00)
15 Echo of the Wilds Jun 10, 2014 $8.99N/A (N/A)20,000 .. 50,0000%00:00 (00:00)
16 Ninja Pizza Girl Sep 30, 2015 $6.99N/A (N/A/82%)100,000 .. 200,0000%00:00 (00:00)
17 Fancy Skulls Jun 16, 2014 $8.99N/A (N/A)50,000 .. 100,0000%00:00 (00:00)
18 Showdown Adventure Sep 23, 2016 $2.99N/A (N/A)0 .. 20,0000%00:00 (00:00)
19 VoxreD Sep 30, 2016 $0.99N/A (N/A)50,000 .. 100,0007.14%07:50 (02:36)
20 Joana's Life Sep 1, 2016 $5.99N/A (N/A)50,000 .. 100,0000%00:00 (00:00)
21 BoomTown! Deluxe Oct 14, 2016 $1.99N/A (N/A)20,000 .. 50,0000%00:00 (00:00)
22 Intensive Exposure Sep 6, 2016 $4.99N/A (N/A)0 .. 20,0000%00:00 (00:00)
23 Pixel Gladiator Sep 8, 2017 $4.99N/A (N/A)20,000 .. 50,0000%00:00 (00:00)
24 It Comes Around - A Kinetic Novel Sep 29, 2016 $2.99N/A (N/A)20,000 .. 50,0000%00:00 (00:00)
25 Snake Pass Mar 28, 2017 $19.99N/A (N/A/71%)100,000 .. 200,0000%00:00 (00:00)
26 Brave Dungeon Sep 2, 2016 $0.99N/A (N/A)50,000 .. 100,0000%00:00 (00:00)
27 Alteric Jul 13, 2016 $3.99N/A (N/A)20,000 .. 50,0000%00:00 (00:00)
28 Starship Annihilator Sep 2, 2016 $0.99N/A (N/A)100,000 .. 200,0005.88%00:52 (00:17)
29 You Deserve Aug 19, 2016 $0.99N/A (N/A)20,000 .. 50,0000%00:00 (00:00)
30 The Gleam: VR Escape the Room Oct 14, 2016 $3.99N/A (N/A)100,000 .. 200,0000%00:00 (00:00)
31 Dinosaur Forest May 17, 2017 $1.99N/A (N/A)50,000 .. 100,0000%00:00 (00:00)
32 Night Forest Nov 8, 2016 $3.99N/A (N/A)20,000 .. 50,0000%00:00 (00:00)
33 Aircraft War X Aug 5, 2016 $0.99N/A (N/A)200,000 .. 500,0000%00:00 (00:00)
34 mr.President Prologue Episode Sep 20, 2016 $0.99N/A (N/A)50,000 .. 100,0000%00:00 (00:00)
35 Disillusions Manga Horror Jan 16, 2015 $0.99N/A (N/A)20,000 .. 50,0000%00:00 (00:00)
36 Sky Mercenaries Dec 16, 2014 $9.99N/A (N/A)20,000 .. 50,0000%00:00 (00:00)
37 The Cursed Forest Feb 26, 2019 $10.99N/A (N/A)0 .. 20,0000%00:00 (00:00)
38 Chronicles of a Dark Lord: Episode 1 Tides of Fate Complete Dec 19, 2014 $0.99N/A (N/A)50,000 .. 100,0000%00:00 (00:00)
39 Rats - Time is running out! Aug 19, 2015 $4.99N/A (N/A)50,000 .. 100,0000%00:00 (00:00)
40 Bermuda Mar 17, 2015 $2.99N/A (N/A)50,000 .. 100,0000%00:00 (00:00)
41 BlastZone 2 Feb 19, 2015 $9.99N/A (N/A)20,000 .. 50,0000%00:00 (00:00)
42 TIMEframe Jul 7, 2015 $5.99N/A (N/A)100,000 .. 200,0000%00:00 (00:00)
43 Pix the Cat Jan 29, 2015 $9.99N/A (N/A/77%)50,000 .. 100,0000%00:00 (00:00)
44 On A Roll 3D Feb 12, 2015 $3.99N/A (N/A)50,000 .. 100,0000%00:00 (00:00)
45 Phoenix Force Nov 13, 2014 $2.39N/A (N/A)50,000 .. 100,0000%00:00 (00:00)
46 Glorkian Warrior: The Trials Of Glork Mar 24, 2015 $3.99N/A (N/A)20,000 .. 50,0000%00:00 (00:00)
47 Marvin's Mittens Dec 17, 2014 $5.99N/A (N/A)0 .. 20,0000%00:00 (00:00)
48 Countless Rooms of Death Jan 9, 2015 $0.99N/A (N/A)20,000 .. 50,0000%00:00 (00:00)
49 A Druid's Duel Feb 25, 2015 $7.99N/A (N/A/70%)20,000 .. 50,0000%00:00 (00:00)
50 It came from space and ate our brains Mar 19, 2015 N/AN/A (N/A)50,000 .. 100,0000%00:00 (00:00)
51 Dwarf Tower May 5, 2014 $0.99N/A (N/A)20,000 .. 50,0000%00:00 (00:00)
52 SOL: Exodus Jan 25, 2012 $7.99N/A (N/A/57%)50,000 .. 100,0000%00:00 (00:00)
53 Ultratron Mar 18, 2013 $9.99N/A (N/A)100,000 .. 200,0000%00:00 (00:00)
54 Titan Attacks! Feb 3, 2012 $9.99N/A (N/A)100,000 .. 200,0000%00:00 (00:00)
55 Cargo Commander Nov 1, 2012 $2.99N/A (N/A)100,000 .. 200,0000%00:00 (00:00)
56 BIT.TRIP CORE Oct 2, 2012 $9.99N/A (N/A)50,000 .. 100,0000%00:00 (00:00)
57 Puddle Nov 9, 2012 $7.99N/A (N/A)100,000 .. 200,0000%00:00 (00:00)
58 BIT.TRIP VOID Dec 19, 2012 $9.99N/A (N/A)20,000 .. 50,0000%00:00 (00:00)
59 Papo & Yo Apr 18, 2013 $14.99N/A (N/A/70%)200,000 .. 500,0000%00:00 (00:00)
60 Tales From Space: Mutant Blobs Attack Aug 15, 2012 $1.99N/A (N/A/83%)100,000 .. 200,0000%00:00 (00:00)
61 Critter Crunch Sep 11, 2012 $6.99N/A (N/A)50,000 .. 100,0000%00:00 (00:00)
62 Unmechanical Aug 8, 2012 $9.99N/A (N/A/74%)100,000 .. 200,0000%00:00 (00:00)
63 BIT.TRIP BEAT Nov 2, 2010 $9.99N/A (N/A)200,000 .. 500,0000%00:00 (00:00)
64 Sugar Cube: Bittersweet Factory Nov 7, 2012 $6.99N/A (N/A)20,000 .. 50,0000%00:00 (00:00)
65 Super Splatters Jun 26, 2013 N/AN/A (N/A/73%)100,000 .. 200,0000%00:00 (00:00)
66 Party of Sin Dec 13, 2012 $5.99N/A (N/A)50,000 .. 100,0000%00:00 (00:00)
67 Ms. Splosion Man Apr 3, 2013 $9.99N/A (N/A)50,000 .. 100,0000%00:00 (00:00)
68 Home Jun 1, 2012 $4.99N/A (N/A/69%)200,000 .. 500,0000%00:00 (00:00)
69 Introvert Quest Mar 15, 2017 $4.99N/A (N/A)100,000 .. 200,0000%00:00 (00:00)
70 Outrunner Apr 12, 2017 $0.99N/A (N/A)20,000 .. 50,0000%00:00 (00:00)
71 Distant Space Dec 20, 2016 $0.99N/A (N/A)50,000 .. 100,0000%00:00 (00:00)
72 Child Phobia: Nightcoming Fears Dec 20, 2016 $1.99N/A (N/A)20,000 .. 50,0000%00:00 (00:00)
73 The Last Warlord | 三國志漢末霸業 May 26, 2017 $16.99N/A (N/A)20,000 .. 50,0000%00:00 (00:00)
74 GORN Jul 18, 2019 $19.99N/A (N/A/85%)200,000 .. 500,00015.38%00:35 (00:23)
75 Sleight Nov 9, 2016 $0.99N/A (N/A)100,000 .. 200,0003.85%04:33 (01:31)
76 Open Sorcery Feb 22, 2017 $3.99N/A (N/A)0 .. 20,0000%00:00 (00:00)
77 Wayout Nov 4, 2016 $0.99N/A (N/A)50,000 .. 100,0007.69%00:04 (00:01)
78 Guns of Icarus Alliance Mar 31, 2017 $4.99N/A (N/A)50,000 .. 100,0000%00:00 (00:00)
79 Zolg Dec 2, 2016 $0.99N/A (N/A)20,000 .. 50,0000%00:00 (00:00)
80 The Archotek Project Apr 28, 2017 $4.99N/A (N/A)50,000 .. 100,0000%00:00 (00:00)
81 Witch It May 31, 2017 $14.99N/A (N/A)200,000 .. 500,0000%00:00 (00:00)
82 Phantom Soldier Mar 29, 2017 $4.99N/A (N/A)100,000 .. 200,0000%00:00 (00:00)
83 Orbit HD Mar 18, 2015 $1.99N/A (N/A)20,000 .. 50,0000%00:00 (00:00)
84 Pizza Express Jun 25, 2015 $6.99N/A (N/A)20,000 .. 50,0000%00:00 (00:00)
85 Canabalt Apr 30, 2015 $2.99N/A (N/A)20,000 .. 50,0000%00:00 (00:00)
86 Football, Tactics & Glory Jun 1, 2018 $18.74N/A (N/A)20,000 .. 50,0000%00:00 (00:00)
87 Spellsworn Mar 13, 2018 FreeN/A (N/A)200,000 .. 500,0000%00:00 (00:00)
88 The Adventures of Mr. Bobley Jul 1, 2015 $3.99N/A (N/A)50,000 .. 100,0000%00:00 (00:00)
89 Luna Sky Oct 2, 2015 $12.99N/A (N/A)50,000 .. 100,0000%00:00 (00:00)
90 Monument Jun 5, 2015 $3.99N/A (N/A)20,000 .. 50,0000%00:00 (00:00)
91 Interstellar Rift Jun 23, 2015 $18.99N/A (N/A)20,000 .. 50,0000%00:00 (00:00)
92 Scribble Space Jun 1, 2015 $1.99N/A (N/A)20,000 .. 50,0000%00:00 (00:00)
93 Broken Bots Jun 8, 2016 $6.99N/A (N/A)0 .. 20,0000%00:00 (00:00)
94 Miner Warfare Apr 6, 2012 $2.99N/A (N/A)0 .. 20,0000%00:00 (00:00)
95 Treeker: The Lost Glasses May 13, 2015 $8.99N/A (N/A)0 .. 20,0000%00:00 (00:00)
96 NEO AQUARIUM - The King of Crustaceans - Jun 8, 2015 $8.99N/A (N/A)20,000 .. 50,0000%00:00 (00:00)
97 Season of 12 Colors Mar 14, 2016 $2.99N/A (N/A)20,000 .. 50,0000%00:00 (00:00)
98 Beyond Eyes Aug 11, 2015 $14.99N/A (N/A/60%)100,000 .. 200,0000%00:00 (00:00)
99 Impossiball Aug 8, 2017 $0.99N/A (N/A)0 .. 20,0000%00:00 (00:00)
100 8Bit Fiesta - Party Game Sep 30, 2016 FreeN/A (N/A)0 .. 20,0000%00:00 (00:00)
101 Shmadow Nov 3, 2015 $1.99N/A (N/A)20,000 .. 50,0000%00:00 (00:00)
102 Aviary Attorney Dec 21, 2015 $14.99N/A (N/A/77%)50,000 .. 100,0000%00:00 (00:00)
103 Moonbase 332 Sep 18, 2015 $4.99N/A (N/A)20,000 .. 50,0000%00:00 (00:00)
104 none Nov 4, 2015 N/AN/A (N/A)20,000 .. 50,0000%00:00 (00:00)
105 Kitchen Simulator 2015 Sep 2, 2015 $0.99N/A (N/A)50,000 .. 100,0000%00:00 (00:00)
106 Super Trench Attack 2 Nov 6, 2015 $0.49N/A (N/A)20,000 .. 50,0000%00:00 (00:00)
107 Press X to Not Die Oct 6, 2017 $2.99N/A (N/A)50,000 .. 100,00010%03:57 (01:19)
108 Earth Overclocked Dec 4, 2015 $4.99N/A (N/A)20,000 .. 50,0000%00:00 (00:00)
109 Western Press Apr 21, 2016 $4.99N/A (N/A)20,000 .. 50,0000%00:00 (00:00)
110 iZBOT Sep 1, 2015 $11.99N/A (N/A)0 .. 20,0000%00:00 (00:00)
111 Sky Rogue Aug 24, 2017 $19.99N/A (N/A)50,000 .. 100,0000%00:00 (00:00)
112 Redemption: Eternal Quest Aug 28, 2015 $1.99N/A (N/A)100,000 .. 200,0000%00:00 (00:00)
113 Orion Trail Oct 12, 2015 $7.99N/A (N/A)0 .. 20,0000%00:00 (00:00)
114 Blaster Shooter GunGuy! Aug 10, 2015 $1.99N/A (N/A)100,000 .. 200,0000%00:00 (00:00)
115 Action Alien Jun 26, 2015 $1.19N/A (N/A)50,000 .. 100,0000%00:00 (00:00)
116 Wild Island Quest Sep 4, 2015 $0.49N/A (N/A)50,000 .. 100,0000%00:00 (00:00)
117 Gentlemen! Nov 5, 2013 $4.99N/A (N/A)20,000 .. 50,0000%00:00 (00:00)
118 Super Puzzle Platformer Deluxe May 24, 2013 $7.99N/A (N/A)50,000 .. 100,0000%00:00 (00:00)
119 Escape Goat 2 Mar 24, 2014 $9.99N/A (N/A/76%)50,000 .. 100,0000%00:00 (00:00)
120 Poöf Nov 8, 2013 $6.99N/A (N/A)20,000 .. 50,0000%00:00 (00:00)
121 Survivor Squad Jan 21, 2015 $2.99N/A (N/A)100,000 .. 200,0000%00:00 (00:00)
122 The Novelist Dec 10, 2013 $4.99N/A (N/A/66%)50,000 .. 100,0000%00:00 (00:00)
123 Montague's Mount Nov 19, 2013 $4.99N/A (N/A/39%)20,000 .. 50,0000%00:00 (00:00)
124 Knytt Underground Oct 25, 2013 $6.99N/A (N/A)50,000 .. 100,0000%00:00 (00:00)
125 Bad Hotel Oct 16, 2013 $4.99N/A (N/A)50,000 .. 100,0000%00:00 (00:00)
126 Escape Goat Oct 9, 2013 $4.99N/A (N/A)20,000 .. 50,0000%00:00 (00:00)
127 Godus N/AN/A (N/A)20,000 .. 50,0000%00:00 (00:00)
128 Gravity Ghost Jan 26, 2015 $14.99N/A (N/A/75%)20,000 .. 50,0000%00:00 (00:00)
129 Wake $4.99N/A (N/A)0 .. 20,0000%00:00 (00:00)
130 Solar Flux Oct 24, 2013 $9.99N/A (N/A)100,000 .. 200,0000%00:00 (00:00)
131 Zack Zero Apr 29, 2013 $2.99N/A (N/A)50,000 .. 100,0000%00:00 (00:00)
132 FOTONICA Nov 6, 2014 $14.99N/A (N/A/71%)50,000 .. 100,0000%00:00 (00:00)
133 Element4l May 24, 2013 $8.99N/A (N/A/77%)50,000 .. 100,0000%00:00 (00:00)
134 Space Moth DX Jan 22, 2016 $4.99N/A (N/A)20,000 .. 50,0000%00:00 (00:00)
135 Cube Land Arena Mar 29, 2016 $0.49N/A (N/A)20,000 .. 50,0000%00:00 (00:00)
136 PERFECT ANGLE: The puzzle game based on optical illusions Dec 22, 2015 $9.99N/A (N/A)50,000 .. 100,0000%00:00 (00:00)
137 Brute May 17, 2017 $6.99N/A (N/A)0 .. 20,0000%00:00 (00:00)
138 IMSCARED Feb 3, 2016 $3.99N/A (N/A)20,000 .. 50,0000%00:00 (00:00)
139 Hero Quest: Tower Conflict Apr 13, 2016 $0.99N/A (N/A)200,000 .. 500,0000%00:00 (00:00)
140 Tiny Guardians Mar 23, 2016 $9.99N/A (N/A)0 .. 20,0000%00:00 (00:00)
141 CrazyCars3D Jun 14, 2016 $2.99N/A (N/A)20,000 .. 50,0000%00:00 (00:00)
142 Doodle Kingdom Jun 9, 2016 $8.99N/A (N/A)20,000 .. 50,0000%00:00 (00:00)
143 1,000 Heads Among the Trees Dec 11, 2015 $4.99N/A (N/A)100,000 .. 200,0000%00:00 (00:00)
144 Empire of the Gods Jan 27, 2016 $1.99N/A (N/A)0 .. 20,0000%00:00 (00:00)
145 The Purring Quest Nov 12, 2015 $9.99N/A (N/A)50,000 .. 100,0000%00:00 (00:00)
146 Mindless Running Feb 18, 2016 $0.99N/A (N/A)20,000 .. 50,0000%00:00 (00:00)
147 Days Under Custody Nov 23, 2015 $4.99N/A (N/A)20,000 .. 50,0000%00:00 (00:00)
148 Mimpi Dreams Mar 22, 2016 FreeN/A (N/A)20,000 .. 50,0000%00:00 (00:00)
149 Godus Wars Feb 3, 2016 $14.99N/A (N/A)50,000 .. 100,0000%00:00 (00:00)
150 Cubium Dreams Apr 29, 2016 $3.99N/A (N/A)100,000 .. 200,0000%00:00 (00:00)
151 Road Not Taken Aug 5, 2014 $14.99N/A (N/A/75%)50,000 .. 100,0000%00:00 (00:00)
152 Labyrinthine Dreams May 26, 2015 $1.99N/A (N/A)50,000 .. 100,0000%00:00 (00:00)
153 Dreaming Sarah Mar 12, 2015 $5.99N/A (N/A)100,000 .. 200,0000%00:00 (00:00)
154 Pulstar Jun 11, 2014 $1.99N/A (N/A)20,000 .. 50,0000%00:00 (00:00)
155 Captain Forever Remix Jun 3, 2016 $9.99N/A (N/A)20,000 .. 50,0000%00:00 (00:00)
156 Munin Jun 10, 2014 $4.99N/A (N/A/68%)100,000 .. 200,0000%00:00 (00:00)
157 Frederic: Resurrection of Music May 16, 2014 $2.99N/A (N/A)100,000 .. 200,0000%00:00 (00:00)
158 ReignMaker Apr 16, 2014 $14.99N/A (N/A)50,000 .. 100,0000%00:00 (00:00)
159 Ballpoint Universe - Infinite Dec 17, 2013 $3.99N/A (N/A)100,000 .. 200,0000%00:00 (00:00)
160 Slip Apr 28, 2014 $0.99N/A (N/A)20,000 .. 50,0000%00:00 (00:00)
161 STARWHAL Sep 29, 2014 $5.99N/A (N/A)50,000 .. 100,0000%00:00 (00:00)
162 Three Dead Zed Jul 7, 2014 $5.99N/A (N/A)50,000 .. 100,0000%00:00 (00:00)
163 Full Bore May 6, 2014 $14.99N/A (N/A/72%)20,000 .. 50,0000%00:00 (00:00)
164 Uriel's Chasm Sep 12, 2014 $4.99N/A (N/A)200,000 .. 500,0000%00:00 (00:00)
165 Imagine Me Dec 9, 2014 $2.99N/A (N/A)50,000 .. 100,0000%00:00 (00:00)
166 Arson and Plunder: Unleashed Sep 25, 2015 $4.99N/A (N/A)20,000 .. 50,0000%00:00 (00:00)
167 Jones On Fire Mar 14, 2013 $2.99N/A (N/A)100,000 .. 200,0000%00:00 (00:00)
168 Neon Space ULTRA Jun 1, 2016 $2.99N/A (N/A)20,000 .. 50,0005.88%04:33 (01:31)
169 Karma Miwa Aug 12, 2016 $0.99N/A (N/A)20,000 .. 50,0000%00:00 (00:00)
170 上帝之城 I:监狱帝国 [City of God I - Prison Empire] Jul 9, 2018 $18.99N/A (N/A)50,000 .. 100,0000%00:00 (00:00)
171 Super Duper Party Pooper Jun 6, 2016 $0.99N/A (N/A/40%)100,000 .. 200,0000%00:00 (00:00)
172 Scanner Sombre Apr 26, 2017 $5.99N/A (N/A/67%)100,000 .. 200,0000%00:00 (00:00)
173 DashBored Jun 13, 2016 $4.99N/A (N/A)0 .. 20,0000%00:00 (00:00)
174 ORCS May 20, 2016 $1.99N/A (N/A)20,000 .. 50,0000%00:00 (00:00)
175 Bye-Bye, Wacky Planet Nov 4, 2016 $3.99N/A (N/A)200,000 .. 500,0000%00:00 (00:00)
176 Reflection of Mine Feb 24, 2017 $7.99N/A (N/A)0 .. 20,0000%00:00 (00:00)
177 Domino Sky Apr 5, 2016 $3.99N/A (N/A)50,000 .. 100,0000%00:00 (00:00)
178 Overhell May 28, 2016 $1.99N/A (N/A)100,000 .. 200,0003.45%04:33 (01:31)
179 Snooker Nation Championship Apr 27, 2016 $3.99N/A (N/A)0 .. 20,0000%00:00 (00:00)
180 Beater Spirit Jun 1, 2016 $5.99N/A (N/A)100,000 .. 200,0000%00:00 (00:00)
181 Moonstone Tavern - A Fantasy Tavern Sim! May 13, 2016 $7.99N/A (N/A)20,000 .. 50,0000%00:00 (00:00)
182 Star Drifter Jun 1, 2016 $0.99N/A (N/A)200,000 .. 500,0000%00:00 (00:00)
183 NORTH Apr 27, 2016 $1.99N/A (N/A)200,000 .. 500,0000%00:00 (00:00)
184 Call Of The Mighty Warriors Jun 2, 2016 $0.99N/A (N/A)50,000 .. 100,0000%00:00 (00:00)

Tags over time:

Access restricted.

This feature is only available to users with special access rights. Sorry.

If you want to proceed, you need to register or log in first and then back Steam Spy on Patreon. Look for Indie or Pro pledge.

Don't forget to use the same email as on Steam Spy!

Owners of this game also own:

Access restricted.

This feature is only available to users with special access rights. Sorry.

If you want to proceed, you need to register or log in first and then back Steam Spy on Patreon. Look for Indie or Pro pledge.

Don't forget to use the same email as on Steam Spy!

Playtime distribution:

Access restricted.

This feature is only available to users with special access rights. Sorry.

If you want to proceed, you need to register or log in first and then back Steam Spy on Patreon. Look for Indie or Pro pledge.

Don't forget to use the same email as on Steam Spy!

Playtime (2 weeks):

Access restricted.

This feature is only available to users with special access rights. Sorry.

If you want to proceed, you need to register or log in first and then back Steam Spy on Patreon. Look for Indie or Pro pledge.

Don't forget to use the same email as on Steam Spy!

User reviews:

Login required.

Please register or log in to see this information.